FW6366 Weather Reports


Display with metric or nautical units.
time (UTC)temp
F
wind
direction
speed
MPH
gust
MPH
rain 1hr
in
rain 24hr
in
rain mn
in
humidity
%
barometer
mb
20260510185102 60 356 2.0 6.0 0.00 0.13 0.04 71 1012.9
20260510184602 59 179 2.0 10.0 0.00 0.13 0.04 68 1013.0
20260510184100 59 272 1.0 10.0 0.00 0.13 0.04 73 1013.0
20260510183600 59 181 4.0 7.0 0.00 0.13 0.04 71 1013.0
20260510183107 60 177 2.0 14.0 0.00 0.13 0.04 70 1012.9
20260510182602 60 150 3.0 14.0 0.00 0.13 0.04 71 1012.9
20260510182059 60 0 2.0 7.0 0.00 0.13 0.04 70 1012.8
20260510181559 60 85 3.0 6.0 0.00 0.13 0.04 72 1012.8
20260510181059 60 335 1.0 9.0 0.00 0.13 0.04 74 1012.7
20260510180600 59 0 1.0 9.0 0.00 0.13 0.04 77 1012.7
20260510180106 58 153 3.0 9.0 0.00 0.13 0.04 76 1012.8
20260510175603 59 248 3.0 7.0 0.00 0.14 0.04 80 1012.9
20260510175059 59 141 2.0 7.0 0.00 0.14 0.04 80 1012.8
20260510174608 58 99 3.0 7.0 0.00 0.14 0.04 81 1012.7
20260510174101 57 0 3.0 7.0 0.00 0.14 0.04 82 1012.7
20260510173600 56 190 1.0 9.0 0.00 0.14 0.04 81 1013.0
20260510173102 56 0 3.0 9.0 0.00 0.14 0.04 81 1012.9
20260510172600 56 137 1.0 4.0 0.00 0.14 0.04 83 1012.9
20260510172100 56 239 0.0 4.0 0.00 0.14 0.04 83 1012.8
20260510171559 56 327 0.0 4.0 0.00 0.14 0.04 84 1012.9
20260510171100 56 136 0.0 4.0 0.00 0.14 0.04 85 1012.8
20260510170600 56 0 1.0 4.0 0.00 0.14 0.04 82 1012.9
20260510170114 57 158 1.0 6.0 0.00 0.14 0.04 82 1012.9
20260510165600 57 186 1.0 6.0 0.00 0.17 0.04 81 1012.9
20260510165103 57 162 0.0 4.0 0.00 0.17 0.04 83 1012.9
20260510164623 57 0 0.0 6.0 0.00 0.17 0.04 81 1012.9
20260510164059 57 179 2.0 7.0 0.00 0.17 0.04 81 1013.0
20260510163559 57 0 1.0 7.0 0.00 0.17 0.04 82 1012.9
20260510163104 57 169 2.0 7.0 0.00 0.17 0.04 84 1012.9
20260510162600 57 220 3.0 9.0 0.00 0.17 0.04 82 1013.0
20260510162059 56 281 3.0 9.0 0.00 0.17 0.04 82 1013.0
20260510161558 56 202 2.0 7.0 0.01 0.17 0.04 87 1013.1
20260510161100 56 190 3.0 7.0 0.01 0.17 0.04 87 1012.9
20260510160600 55 132 4.0 7.0 0.01 0.17 0.04 87 1012.8
20260510160132 55 182 2.0 4.0 0.01 0.17 0.04 89 1012.9
20260510155559 54 0 0.0 4.0 0.01 0.22 0.04 89 1012.7
20260510155100 54 108 0.0 8.0 0.01 0.22 0.04 89 1012.7
20260510154609 54 0 2.0 8.0 0.01 0.22 0.04 90 1012.7
20260510154100 54 0 1.0 7.0 0.02 0.22 0.04 90 1012.5
20260510153559 54 0 0.0 7.0 0.03 0.22 0.04 92 1012.4
20260510153058 54 111 2.0 7.0 0.03 0.22 0.04 93 1012.5
20260510152559 54 259 1.0 3.0 0.03 0.22 0.04 94 1012.6
20260510152058 54 0 0.0 3.0 0.03 0.22 0.04 94 1012.4
20260510151610 54 0 0.0 4.0 0.02 0.21 0.03 93 1012.3
20260510151100 54 0 1.0 4.0 0.02 0.21 0.03 93 1012.2
20260510150602 53 269 0.0 3.0 0.02 0.21 0.03 92 1012.3
20260510145600 54 320 2.0 3.0 0.02 0.22 0.03 90 1012.0
20260510145059 54 304 1.0 6.0 0.02 0.22 0.03 88 1011.9
20260510144616 55 0 0.0 7.0 0.02 0.22 0.03 85 1011.9
20260510144100 56 205 2.0 11.0 0.01 0.21 0.02 81 1012.1
20260510143600 57 179 1.0 11.0 0.00 0.20 0.01 79 1012.3
20260510143058 57 354 2.0 11.0 0.00 0.20 0.01 78 1012.1
20260510142558 57 46 1.0 6.0 0.00 0.20 0.01 79 1012.0
20260510142100 57 25 1.0 9.0 0.00 0.20 0.01 79 1011.7
20260510141559 58 206 1.0 9.0 0.00 0.20 0.01 80 1011.4
20260510141100 58 184 1.0 9.0 0.00 0.20 0.01 77 1011.1
20260510140557 58 184 2.0 9.0 0.00 0.20 0.01 77 1011.0
20260510140059 58 177 5.0 8.0 0.00 0.20 0.01 75 1011.1
20260510135600 59 160 2.0 11.0 0.00 0.20 0.01 75 1011.0
20260510135100 59 213 1.0 11.0 0.00 0.20 0.01 77 1011.0
20260510134558 59 190 3.0 9.0 0.00 0.20 0.01 77 1011.1
20260510134059 59 181 1.0 9.0 0.00 0.20 0.01 78 1010.9
20260510133559 59 205 3.0 9.0 0.00 0.20 0.01 77 1010.8
20260510133058 59 210 1.0 6.0 0.00 0.20 0.01 78 1010.9
20260510132559 58 188 3.0 6.0 0.00 0.20 0.01 80 1010.9
20260510132058 58 187 2.0 6.0 0.00 0.20 0.01 80 1010.9
20260510131559 58 168 1.0 5.0 0.00 0.20 0.01 79 1011.0
20260510131057 58 174 1.0 4.0 0.00 0.20 0.01 83 1011.1
20260510130557 58 183 0.0 4.0 0.00 0.20 0.01 83 1011.1
20260510130057 59 180 1.0 5.0 0.00 0.20 0.01 80 1011.1
20260510125557 59 164 1.0 5.0 0.00 0.20 0.01 82 1011.1
20260510125100 58 188 1.0 6.0 0.00 0.20 0.01 82 1011.2
20260510124613 57 0 1.0 6.0 0.00 0.20 0.01 83 1011.1
20260510124100 57 26 1.0 3.0 0.00 0.20 0.01 85 1010.9
20260510123600 56 148 2.0 3.0 0.00 0.20 0.01 86 1010.6
20260510123100 56 143 0.0 4.0 0.00 0.20 0.01 88 1010.6
20260510122602 56 0 2.0 4.0 0.00 0.20 0.01 90 1010.8
20260510122059 55 47 1.0 3.0 0.00 0.20 0.01 92 1010.9
20260510121559 54 129 1.0 4.0 0.00 0.20 0.01 94 1010.9
20260510121100 53 82 1.0 4.0 0.00 0.20 0.01 95 1011.3
20260510120603 53 103 0.0 3.0 0.00 0.20 0.01 97 1011.2
20260510120059 52 0 1.0 3.0 0.00 0.20 0.01 97 1011.3
20260510115603 51 72 0.0 2.0 0.00 0.20 0.01 97 1011.4
20260510115101 51 112 0.0 1.0 0.00 0.20 0.01 97 1011.4
20260510114600 50 0 0.0 1.0 0.00 0.20 0.01 97 1011.3
20260510114100 50 0 0.0 2.0 0.00 0.20 0.01 97 1011.2
20260510113559 49 0 0.0 2.0 0.00 0.20 0.01 97 1011.3
20260510113104 48 174 0.0 2.0 0.00 0.20 0.01 97 1011.2
20260510112600 48 0 0.0 2.0 0.00 0.20 0.01 97 1011.2
20260510112100 48 0 0.0 2.0 0.00 0.20 0.01 97 1011.1
20260510111558 48 77 0.0 2.0 0.00 0.20 0.01 97 1010.9
20260510111059 47 0 0.0 2.0 0.00 0.20 0.01 97 1010.9
20260510110604 47 0 0.0 2.0 0.00 0.20 0.01 97 1010.9
20260510110058 47 0 0.0 3.0 0.00 0.20 0.01 97 1010.8
20260510105602 46 0 0.0 3.0 0.00 0.20 0.01 97 1010.7
20260510105101 46 172 0.0 2.0 0.00 0.20 0.01 97 1010.6
20260510104604 46 136 0.0 1.0 0.00 0.20 0.01 97 1010.6
20260510104100 46 90 0.0 2.0 0.00 0.20 0.01 97 1010.4
20260510103600 46 0 0.0 2.0 0.00 0.20 0.01 97 1010.5
20260510103100 46 0 0.0 1.0 0.00 0.20 0.01 97 1010.6
20260510102600 45 0 0.0 1.0 0.00 0.20 0.01 97 1010.7
20260510102100 45 0 0.0 2.0 0.00 0.20 0.01 97 1010.6
20260510101602 45 164 0.0 2.0 0.00 0.20 0.01 97 1010.6
20260510101102 46 0 0.0 1.0 0.00 0.20 0.01 97 1010.3
20260510100602 45 0 0.0 1.0 0.00 0.20 0.01 97 1010.1
20260510100059 45 0 0.0 1.0 0.00 0.20 0.01 97 1010.0
20260510095600 45 0 0.0 1.0 0.00 0.20 0.01 97 1009.9
20260510095101 45 0 0.0 2.0 0.01 0.20 0.01 97 1009.8
20260510094611 45 81 0.0 2.0 0.01 0.20 0.01 97 1009.6
20260510094059 45 354 1.0 2.0 0.01 0.20 0.01 97 1009.8
20260510093559 45 309 0.0 2.0 0.01 0.20 0.01 97 1009.6
20260510093120 44 0 0.0 2.0 0.01 0.20 0.01 96 1009.6
20260510092559 45 0 0.0 2.0 0.01 0.20 0.01 96 1009.4
20260510092101 46 0 1.0 2.0 0.01 0.20 0.01 97 1009.3
20260510091602 46 304 0.0 2.0 0.01 0.20 0.01 97 1009.3
20260510091059 46 0 0.0 2.0 0.01 0.20 0.01 96 1009.2
20260510090605 46 80 0.0 2.0 0.01 0.20 0.01 96 1009.2
20260510090100 46 8 1.0 2.0 0.01 0.20 0.01 97 1009.3
20260510085600 47 0 0.0 2.0 0.01 0.20 0.01 96 1009.3
20260510085059 47 0 0.0 2.0 0.00 0.19 0.00 97 1009.2
20260510084605 46 0 0.0 1.0 0.00 0.19 0.00 96 1009.2
20260510084100 47 0 0.0 1.0 0.00 0.19 0.00 96 1009.2
20260510083600 47 0 0.0 1.0 0.00 0.19 0.00 97 1009.1
20260510083101 47 0 0.0 3.0 0.00 0.19 0.00 96 1009.0
20260510082604 47 0 0.0 3.0 0.00 0.19 0.00 96 1009.1
20260510082059 47 330 0.0 2.0 0.00 0.19 0.00 96 1009.3
20260510081601 47 59 0.0 1.0 0.00 0.19 0.00 96 1009.2
20260510081103 47 0 0.0 1.0 0.00 0.19 0.00 97 1009.5
20260510080600 47 0 0.0 3.0 0.00 0.19 0.00 96 1009.6
20260510080100 47 0 0.0 3.0 0.00 0.19 0.00 96 1009.7
20260510075559 48 0 1.0 3.0 0.00 0.19 0.00 96 1009.9
20260510075100 47 298 1.0 2.0 0.00 0.19 0.00 96 1010.1
20260510074602 47 0 0.0 1.0 0.00 0.19 0.00 96 1010.1
20260510074100 47 0 0.0 1.0 0.00 0.19 0.00 96 1010.2
20260510073559 47 260 0.0 1.0 0.00 0.19 0.00 96 1010.4
20260510073059 47 0 0.0 1.0 0.00 0.19 0.00 96 1010.2
20260510072600 47 0 0.0 1.0 0.00 0.19 0.00 96 1010.0
20260510072100 47 0 0.0 1.0 0.00 0.19 0.00 96 1010.1
20260510071601 47 73 0.0 1.0 0.00 0.19 0.00 96 1010.0
20260510071059 47 17 0.0 1.0 0.00 0.19 0.00 96 1009.9
20260510070559 47 0 0.0 1.0 0.00 0.19 0.00 96 1009.9
20260510070100 47 0 0.0 1.0 0.00 0.19 0.00 96 1009.9
20260510065605 47 0 0.0 1.0 0.00 0.19 0.00 96 1009.8
20260510065101 47 0 0.0 2.0 0.00 0.19 0.00 96 1009.8
20260510064602 47 0 0.0 2.0 0.00 0.19 0.00 96 1009.9
20260510064100 47 0 0.0 2.0 0.00 0.19 0.00 96 1009.7
20260510063603 47 349 0.0 2.0 0.00 0.19 0.00 96 1009.6
20260510063100 47 0 0.0 1.0 0.00 0.19 0.00 96 1009.7
20260510062603 47 0 0.0 1.0 0.00 0.19 0.00 96 1009.9
20260510062059 47 0 0.0 1.0 0.00 0.19 0.00 96 1009.8
20260510061559 47 0 0.0 2.0 0.00 0.19 0.00 95 1009.8
20260510061102 47 0 0.0 2.0 0.00 0.19 0.00 95 1009.6
20260510060601 47 0 0.0 1.0 0.00 0.19 0.00 95 1009.6
20260510055559 47 0 0.0 2.0 0.00 0.19 0.00 95 1009.6
20260510055059 48 54 0.0 1.0 0.00 0.19 0.00 95 1009.6
20260510054559 48 0 0.0 2.0 0.00 0.19 0.00 95 1009.7
20260510054100 48 0 0.0 2.0 0.00 0.19 0.00 95 1009.6
20260510053600 48 0 0.0 2.0 0.00 0.19 0.00 95 1009.7
20260510053105 48 27 0.0 2.0 0.00 0.19 0.00 95 1009.7
20260510052600 48 307 0.0 1.0 0.00 0.19 0.00 95 1009.8
20260510052100 48 300 0.0 2.0 0.00 0.19 0.00 95 1009.8
20260510051559 48 0 0.0 2.0 0.00 0.19 0.00 95 1009.9
20260510051100 48 327 0.0 3.0 0.00 0.19 0.00 95 1009.8
20260510050602 48 0 1.0 3.0 0.00 0.19 0.00 95 1009.9
20260510050059 48 305 1.0 3.0 0.00 0.19 0.00 95 1009.8
20260510045600 49 0 1.0 4.0 0.00 0.19 0.00 94 1009.7
20260510045100 49 109 1.0 5.0 0.00 0.19 0.00 94 1009.7
20260510044559 49 231 2.0 5.0 0.00 0.19 0.00 95 1009.7
20260510044059 49 293 2.0 5.0 0.00 0.19 0.00 95 1009.7
20260510043559 49 278 1.0 5.0 0.00 0.19 0.00 95 1009.6
20260510043105 49 254 2.0 4.0 0.00 0.19 0.00 95 1009.9
20260510042600 49 269 2.0 4.0 0.00 0.19 0.00 95 1010.1
20260510042103 48 224 1.0 4.0 0.00 0.19 0.00 95 1010.1
20260510041559 48 0 0.0 3.0 0.00 0.19 0.00 95 1010.1
20260510041100 48 0 0.0 3.0 0.00 0.19 0.00 95 1010.1
20260510040604 48 0 1.0 2.0 0.00 0.19 0.00 95 1010.1
20260510040101 48 301 0.0 3.0 0.00 0.19 0.00 95 1009.9
20260510035601 48 0 0.0 3.0 0.00 0.19 0.19 95 1009.8
20260510035059 48 314 1.0 4.0 0.00 0.19 0.19 95 1009.7
20260510034600 48 295 1.0 4.0 0.00 0.19 0.19 95 1009.9
20260510034100 48 284 1.0 5.0 0.00 0.19 0.19 95 1009.9
20260510033604 48 300 1.0 5.0 0.00 0.19 0.19 95 1010.0
20260510033113 49 285 2.0 5.0 0.00 0.19 0.19 95 1010.0
20260510032559 48 284 1.0 4.0 0.00 0.19 0.19 95 1010.0
20260510032102 48 270 1.0 4.0 0.00 0.19 0.19 95 1009.9
20260510031558 48 233 1.0 4.0 0.00 0.19 0.19 95 1009.9
20260510031059 48 266 2.0 4.0 0.00 0.19 0.19 95 1009.9
20260510030600 48 0 1.0 7.0 0.00 0.19 0.19 95 1010.0
20260510030104 48 0 2.0 7.0 0.00 0.19 0.19 95 1010.0
20260510025601 48 0 2.0 5.0 0.00 0.19 0.19 95 1010.1
20260510025104 48 295 2.0 6.0 0.00 0.19 0.19 95 1009.9
20260510024610 48 300 3.0 6.0 0.00 0.19 0.19 95 1010.1
20260510024100 48 245 1.0 5.0 0.00 0.19 0.19 95 1010.1
20260510023559 48 221 1.0 5.0 0.00 0.19 0.19 96 1010.1
20260510023100 48 242 1.0 4.0 0.00 0.19 0.19 96 1010.1
20260510022600 47 300 1.0 3.0 0.00 0.19 0.19 95 1010.1
20260510022100 47 301 0.0 3.0 0.00 0.19 0.19 95 1010.0
20260510021600 47 0 1.0 3.0 0.00 0.19 0.19 95 1010.0
20260510021059 47 300 1.0 3.0 0.00 0.19 0.19 95 1010.0
20260510020559 47 316 0.0 3.0 0.00 0.19 0.19 95 1010.0
20260510020100 47 322 0.0 4.0 0.00 0.19 0.19 95 1009.9
20260510015559 47 300 1.0 4.0 0.00 0.19 0.19 95 1010.0
20260510015059 47 312 1.0 3.0 0.00 0.19 0.19 95 1010.2
20260510014601 48 307 0.0 3.0 0.00 0.19 0.19 95 1010.2
20260510014101 48 0 1.0 4.0 0.00 0.19 0.19 95 1010.3
20260510013601 48 297 2.0 4.0 0.00 0.19 0.19 95 1010.3
20260510013100 48 0 2.0 4.0 0.00 0.19 0.19 94 1010.3
20260510012600 48 296 2.0 6.0 0.00 0.19 0.19 95 1010.3
20260510012103 48 295 1.0 6.0 0.00 0.19 0.19 95 1010.2
20260510011559 48 245 2.0 5.0 0.00 0.19 0.19 95 1010.2
20260510011100 48 253 1.0 4.0 0.00 0.19 0.19 95 1010.3
20260510010559 48 289 2.0 4.0 0.00 0.19 0.19 94 1010.4
20260510005559 48 287 1.0 5.0 0.00 0.19 0.19 94 1010.2
20260510005100 48 277 2.0 5.0 0.00 0.19 0.19 94 1010.2
20260510004603 48 263 1.0 8.0 0.00 0.19 0.19 94 1010.2
20260510004101 48 243 2.0 8.0 0.00 0.19 0.19 94 1010.2
20260510003601 48 267 2.0 8.0 0.00 0.19 0.19 93 1010.2
20260510003059 49 194 1.0 8.0 0.00 0.19 0.19 93 1010.0
20260510002559 48 0 2.0 8.0 0.00 0.19 0.19 94 1010.0
20260510002059 48 256 1.0 6.0 0.00 0.19 0.19 94 1010.1
20260510001601 48 227 2.0 6.0 0.00 0.19 0.19 94 1010.1
20260510001100 48 253 2.0 4.0 0.00 0.19 0.19 94 1010.0
20260510000600 48 265 1.0 4.0 0.00 0.19 0.19 95 1009.9
20260510000104 48 232 1.0 4.0 0.00 0.19 0.19 95 1009.9
20260509235604 48 238 1.0 4.0 0.00 0.19 0.19 95 1009.8
20260509235059 48 265 1.0 5.0 0.00 0.19 0.19 95 1009.8
20260509234609 48 0 2.0 5.0 0.00 0.19 0.19 95 1009.8
20260509234100 48 0 1.0 3.0 0.00 0.19 0.19 95 1009.6
20260509233603 48 340 0.0 4.0 0.00 0.19 0.19 95 1009.5
20260509233100 48 305 1.0 4.0 0.00 0.19 0.19 95 1009.6
20260509232559 48 289 1.0 4.0 0.00 0.19 0.19 95 1009.5
20260509232059 48 316 1.0 3.0 0.00 0.19 0.19 95 1009.5
20260509231601 48 280 2.0 3.0 0.00 0.19 0.19 95 1009.6
20260509231100 48 300 1.0 4.0 0.00 0.19 0.19 95 1009.5
20260509230603 48 297 1.0 4.0 0.00 0.19 0.19 95 1009.5
20260509230103 48 176 1.0 4.0 0.00 0.19 0.19 95 1009.6
20260509225602 48 277 1.0 4.0 0.00 0.19 0.19 95 1009.6
20260509225059 48 295 0.0 3.0 0.00 0.19 0.19 95 1009.5
20260509224559 48 181 0.0 3.0 0.00 0.19 0.19 95 1009.7
20260509224059 48 0 0.0 2.0 0.00 0.19 0.19 95 1009.8
20260509223603 48 314 0.0 2.0 0.00 0.19 0.19 95 1009.7
20260509223103 48 323 0.0 2.0 0.00 0.19 0.19 95 1009.8
20260509222602 48 289 0.0 2.0 0.00 0.19 0.19 95 1009.8
20260509222059 48 0 1.0 2.0 0.00 0.19 0.19 95 1009.9
20260509221600 48 294 0.0 2.0 0.00 0.19 0.19 95 1009.8
20260509221059 48 0 1.0 3.0 0.00 0.19 0.19 95 1009.8
20260509220601 49 0 0.0 3.0 0.00 0.19 0.19 95 1009.9
20260509215600 49 0 0.0 1.0 0.00 0.19 0.19 95 1009.8
20260509215059 49 328 0.0 3.0 0.00 0.19 0.19 95 1009.8
20260509214633 48 323 0.0 3.0 0.00 0.19 0.19 95 1009.7
20260509214059 48 0 1.0 3.0 0.00 0.19 0.19 95 1009.9
20260509213559 48 0 1.0 3.0 0.00 0.19 0.19 95 1010.0
20260509213103 48 281 1.0 3.0 0.00 0.19 0.19 95 1010.1
20260509212559 48 302 1.0 3.0 0.00 0.19 0.19 95 1010.1
20260509212100 48 280 1.0 3.0 0.00 0.19 0.19 95 1010.2
20260509211558 48 244 0.0 3.0 0.00 0.19 0.19 94 1010.2
20260509211103 48 302 1.0 3.0 0.01 0.19 0.19 94 1010.3
20260509210600 48 299 1.0 3.0 0.01 0.19 0.19 95 1010.3
20260509210109 48 286 1.0 3.0 0.01 0.19 0.19 94 1010.3
20260509205600 48 269 1.0 3.0 0.01 0.19 0.19 94 1010.3
20260509205059 48 289 1.0 3.0 0.01 0.19 0.19 94 1010.3
20260509204600 49 276 1.0 2.0 0.02 0.19 0.19 94 1010.4
20260509204100 49 288 0.0 3.0 0.02 0.19 0.19 94 1010.3
20260509203604 49 289 1.0 6.0 0.02 0.19 0.19 93 1010.3
20260509203116 49 240 0.0 6.0 0.03 0.19 0.19 93 1010.3
20260509202559 49 321 1.0 6.0 0.03 0.19 0.19 93 1010.5
20260509202100 49 307 1.0 4.0 0.03 0.19 0.19 93 1010.6
20260509201600 49 188 0.0 3.0 0.04 0.19 0.19 93 1010.6
20260509201102 49 287 1.0 6.0 0.03 0.18 0.18 93 1010.7
20260509200602 49 197 1.0 6.0 0.03 0.18 0.18 93 1010.5
20260509200100 49 268 0.0 4.0 0.03 0.18 0.18 93 1010.6
20260509195558 49 172 0.0 3.0 0.04 0.18 0.18 94 1010.6
20260509195100 49 0 0.0 2.0 0.05 0.18 0.18 94 1010.6
20260509194600 49 0 0.0 2.0 0.05 0.17 0.17 94 1010.6
20260509194100 49 0 0.0 1.0 0.05 0.17 0.17 94 1010.6
20260509193602 49 0 0.0 2.0 0.06 0.17 0.17 94 1010.7
20260509193111 49 0 0.0 2.0 0.05 0.16 0.16 94 1010.7
20260509192601 49 0 0.0 2.0 0.05 0.16 0.16 94 1010.6
20260509192059 48 0 0.0 2.0 0.05 0.16 0.16 93 1010.7
20260509191607 48 0 0.0 2.0 0.05 0.15 0.15 94 1010.8
20260509191100 48 207 0.0 3.0 0.05 0.15 0.15 94 1010.8
20260509190600 48 0 0.0 3.0 0.05 0.15 0.15 94 1010.9
20260509190100 48 238 0.0 3.0 0.05 0.15 0.15 93 1011.0
20260509185600 48 232 0.0 4.0 0.04 0.14 0.14 93 1010.9